Terminal Aerodrome Forecast
Issued by NWS Twin Cities, MN

Home | Current Version | Previous Version | Graphics & Text | Print | Product List | Glossary On
Versions: 1 2 3 4 5 6 7 8 9 10 11 12 13 14 15 16 17 18 19 20 21
530
FTUS43 KMPX 121739
TAFSTC
TAF
KSTC 121739Z 1218/1318 21007KT P6SM OVC020
     FM130100 16007KT P6SM BKN015
     FM130500 16005KT P6SM SCT015 BKN035
     FM130900 30007KT P6SM VCSH OVC015 PROB30 1309/1312 -FZDZ
     FM131500 32016G24KT P6SM OVC020=

USA.gov is the U.S. government's official web portal to all federal, state and local government web resources and services.